GW4769 Weather Reports


time (UTC)temp
C
wind
direction
speed
KPH
gust
KPH
rain 1hr
cm
rain 24hr
cm
rain mn
cm
humidity
%
barometer
mb
20260906105012 25 304 0.0 0.0 0.00 0.00 0.00 97 1010.8
20260906104530 25 304 0.0 0.0 0.00 0.00 0.00 97 1010.5
20260906104011 25 304 0.0 1.6 0.00 0.00 0.00 97 1010.6
20260906103514 25 304 0.0 3.2 0.00 0.00 0.00 97 1010.5
20260906103031 25 306 0.0 3.2 0.00 0.00 0.00 97 1010.4
20260906102506 25 295 0.0 1.6 0.00 0.00 0.00 97 1010.4
20260906102004 25 314 0.0 0.0 0.00 0.00 0.00 97 1010.4
20260906101512 25 310 0.0 0.0 0.00 0.00 0.00 97 1010.4
20260906101005 25 310 0.0 1.6 0.00 0.00 0.00 97 1010.4
20260906100506 25 310 0.0 1.6 0.00 0.00 0.00 97 1010.3
20260906100020 25 326 0.0 3.2 0.00 0.00 0.00 97 1010.3
20260906095509 25 328 0.0 3.2 0.00 0.00 0.00 97 1010.3
20260906095009 25 339 1.6 1.6 0.00 0.00 0.00 97 1010.3
20260906094521 25 308 0.0 0.0 0.00 0.00 0.00 97 1010.4
20260906094011 25 309 0.0 0.0 0.00 0.00 0.00 97 1010.4
20260906093514 25 308 0.0 1.6 0.00 0.00 0.00 97 1010.3
20260906093032 25 308 0.0 1.6 0.00 0.00 0.00 97 1010.2
20260906092514 25 308 0.0 0.0 0.00 0.00 0.00 97 1010.0
20260906092018 25 308 0.0 0.0 0.00 0.00 0.00 97 1009.9
20260906091535 25 308 0.0 0.0 0.00 0.00 0.00 97 1009.8
20260906091005 25 308 0.0 0.0 0.00 0.00 0.00 97 1009.8
20260906090503 25 308 0.0 0.0 0.00 0.00 0.00 97 1009.9
20260906090013 25 308 0.0 0.0 0.00 0.00 0.00 97 1010.1
20260906085507 26 308 0.0 0.0 0.00 0.00 0.00 97 1010.1
20260906085008 26 308 0.0 0.0 0.00 0.00 0.00 97 1010.1
20260906084518 26 308 0.0 0.0 0.00 0.00 0.00 97 1010.1
20260906084013 26 308 0.0 0.0 0.00 0.00 0.00 97 1010.2
20260906083512 26 308 0.0 0.0 0.00 0.00 0.00 97 1010.2
20260906083022 26 308 0.0 0.0 0.00 0.00 0.00 97 1010.2
20260906082512 26 308 0.0 0.0 0.00 0.00 0.00 97 1010.2
20260906082014 26 308 0.0 0.0 0.00 0.00 0.00 97 1010.2
20260906081541 26 308 0.0 0.0 0.00 0.00 0.00 97 1010.3
20260906081015 26 308 0.0 0.0 0.00 0.00 0.00 97 1010.3
20260906080516 26 308 0.0 0.0 0.00 0.00 0.00 97 1010.3
20260906080032 26 308 0.0 1.6 0.00 0.00 0.00 97 1010.3
20260906075517 26 308 0.0 1.6 0.00 0.00 0.00 97 1010.4
20260906075005 26 323 0.0 1.6 0.00 0.00 0.00 96 1010.5
20260906074519 26 265 0.0 0.0 0.00 0.00 0.00 96 1010.5
20260906074006 26 264 0.0 0.0 0.00 0.00 0.00 96 1010.5
20260906073506 26 265 0.0 0.0 0.00 0.00 0.00 96 1010.3
20260906073023 26 265 0.0 0.0 0.00 0.00 0.00 96 1010.4
20260906072510 26 314 0.0 0.0 0.00 0.00 0.00 96 1010.5
20260906072012 26 314 0.0 0.0 0.00 0.00 0.00 96 1010.7
20260906071526 26 314 0.0 4.8 0.00 0.00 0.00 96 1010.7
20260906071017 26 314 0.0 4.8 0.00 0.00 0.00 96 1010.7
20260906070516 26 330 3.2 4.8 0.00 0.00 0.00 96 1010.8
20260906070030 26 189 0.0 0.0 0.00 0.00 0.00 96 1010.8
20260906065515 26 189 0.0 0.0 0.00 0.00 0.00 96 1010.8
20260906065019 26 189 0.0 0.0 0.00 0.00 0.00 96 1010.8
20260906064534 26 189 0.0 0.0 0.00 0.00 0.00 96 1010.7
20260906064016 26 189 0.0 0.0 0.00 0.00 0.00 96 1010.7
20260906063507 26 189 0.0 0.0 0.00 0.00 0.00 96 1010.6
20260906063017 26 189 0.0 0.0 0.00 0.00 0.00 95 1010.5
20260906062509 26 189 0.0 0.0 0.00 0.00 0.00 95 1010.6
20260906062009 26 189 0.0 0.0 0.00 0.00 0.00 95 1010.6
20260906061526 26 189 0.0 0.0 0.00 0.00 0.00 95 1010.6
20260906061011 27 188 0.0 3.2 0.00 0.00 0.00 95 1010.6
20260906060513 27 203 0.0 3.2 0.00 0.00 0.00 95 1010.7
20260906060028 27 221 0.0 3.2 0.00 0.00 0.00 95 1010.6
20260906055515 27 144 0.0 4.8 0.00 0.00 0.00 95 1010.6
20260906055017 27 174 0.0 4.8 0.00 0.00 0.00 95 1010.7
20260906054535 27 178 0.0 4.8 0.00 0.00 0.00 95 1010.7
20260906054016 27 217 0.0 4.8 0.00 0.00 0.00 95 1010.7
20260906053517 27 267 0.0 4.8 0.00 0.00 0.00 95 1010.7
20260906053035 27 214 0.0 4.8 0.00 0.00 0.00 95 1010.8
20260906052518 27 251 0.0 6.4 0.00 0.00 0.00 95 1010.9
20260906052008 27 141 0.0 6.4 0.00 0.00 0.00 95 1010.8
20260906051519 27 252 0.0 4.8 0.00 0.00 0.00 95 1010.9
20260906051007 27 279 0.0 4.8 0.00 0.00 0.00 95 1011.1
20260906050512 27 231 0.0 4.8 0.00 0.00 0.00 95 1011.1
20260906050011 27 203 0.0 4.8 0.00 0.00 0.00 94 1011.1
20260906045503 27 165 1.6 4.8 0.00 0.00 0.00 94 1011.0
20260906045003 27 169 0.0 4.8 0.00 0.00 0.00 94 1011.0
20260906044504 27 160 0.0 4.8 0.00 0.00 0.00 94 1011.1
20260906044004 27 220 0.0 4.8 0.00 0.00 0.00 94 1011.1
20260906043504 27 232 0.0 4.8 0.00 0.00 0.00 94 1011.2
20260906043010 27 172 1.6 4.8 0.00 0.00 0.00 94 1011.2
20260906042504 27 328 0.0 4.8 0.00 0.00 0.00 94 1011.3
20260906042004 27 191 0.0 6.4 0.00 0.00 0.00 94 1011.2
20260906041516 27 169 1.6 6.4 0.00 0.00 0.00 94 1011.3
20260906041006 27 149 0.0 3.2 0.00 0.00 0.00 94 1011.4
20260906040513 27 124 0.0 3.2 0.00 0.00 0.00 94 1011.5
20260906040028 27 216 0.0 3.2 0.00 0.00 0.00 94 1011.6
20260906035509 27 198 0.0 1.6 0.00 0.00 0.00 93 1011.6
20260906035012 27 219 0.0 3.2 0.00 0.00 0.00 93 1011.6
20260906034529 27 245 0.0 3.2 0.00 0.00 0.00 93 1011.7
20260906034002 27 242 0.0 3.2 0.00 0.00 0.00 93 1011.6
20260906033503 27 186 0.0 3.2 0.00 0.00 0.00 93 1011.6
20260906033019 27 192 0.0 3.2 0.00 0.00 0.00 93 1011.7
20260906032503 27 90 0.0 4.8 0.00 0.00 0.00 93 1011.7
20260906032004 28 210 0.0 6.4 0.00 0.00 0.00 92 1011.9
20260906031513 28 256 0.0 6.4 0.00 0.00 0.00 92 1011.8
20260906031007 28 234 0.0 6.4 0.00 0.00 0.00 92 1011.8
20260906030509 28 254 1.6 9.7 0.00 0.00 0.00 92 1011.7
20260906030015 28 201 0.0 9.7 0.00 0.00 0.00 92 1011.6
20260906025507 28 278 1.6 9.7 0.00 0.00 0.00 92 1011.5
20260906025012 28 160 1.6 9.7 0.00 0.00 0.00 92 1011.4
20260906024523 28 185 3.2 12.9 0.00 0.00 0.00 92 1011.3
20260906024014 28 203 6.4 12.9 0.00 0.00 0.00 92 1011.3
20260906023512 28 217 4.8 12.9 0.00 0.00 0.00 92 1011.2
20260906023027 28 208 3.2 12.9 0.00 0.00 0.00 92 1011.2
20260906022503 28 142 6.4 12.9 0.00 0.00 0.00 92 1010.8
20260906022003 28 208 4.8 14.5 0.00 0.00 0.00 92 1010.7
20260906021506 28 200 6.4 17.7 0.00 0.00 0.00 92 1010.5
20260906021005 28 206 6.4 17.7 0.00 0.00 0.00 91 1010.3
20260906020505 28 169 8.0 17.7 0.00 0.00 0.00 91 1010.1
20260906020012 28 174 6.4 16.1 0.00 0.00 0.00 91 1010.0
20260906015504 28 210 9.7 16.1 0.00 0.00 0.00 91 1009.9
20260906015008 28 163 8.0 16.1 0.00 0.00 0.00 91 1009.9
20260906014519 28 200 6.4 16.1 0.00 0.00 0.00 91 1010.1
20260906014008 28 213 8.0 16.1 0.00 0.00 0.00 91 1009.9
20260906013510 28 211 6.4 12.9 0.00 0.00 0.00 91 1010.2
20260906013028 28 200 6.4 12.9 0.00 0.00 0.00 91 1010.7
20260906012517 28 205 3.2 9.7 0.00 0.00 0.00 91 1010.9
20260906012014 28 193 4.8 8.0 0.00 0.00 0.00 91 1011.0
20260906011536 28 194 3.2 6.4 0.00 0.00 0.00 91 1011.1
20260906011015 28 200 3.2 9.7 0.00 0.00 0.00 90 1011.2
20260906010503 28 193 3.2 9.7 0.00 0.00 0.00 90 1011.2
20260906010010 28 160 3.2 9.7 0.00 0.00 0.00 90 1011.1
20260906005504 28 179 3.2 9.7 0.00 0.00 0.00 90 1011.1
20260906005005 28 207 6.4 9.7 0.00 0.00 0.00 90 1011.0
20260906004515 28 176 6.4 9.7 0.00 0.00 0.00 90 1011.1
20260906004009 28 188 6.4 8.0 0.00 0.00 0.00 90 1011.2
20260906003506 28 173 3.2 9.7 0.00 0.00 0.00 89 1011.3
20260906003024 28 186 4.8 9.7 0.00 0.00 0.00 89 1011.2
20260906002512 28 160 4.8 6.4 0.00 0.00 0.00 89 1011.2
20260906002012 28 181 0.0 9.7 0.00 0.00 0.00 89 1011.2
20260906001529 28 209 3.2 9.7 0.00 0.00 0.00 89 1011.3
20260906001011 28 219 3.2 9.7 0.00 0.00 0.00 89 1011.4
20260906000513 28 236 1.6 8.0 0.00 0.00 0.00 89 1011.5
20260906000033 28 191 1.6 9.7 0.00 0.00 0.00 89 1011.4
20260905235515 28 200 4.8 9.7 0.00 0.00 0.00 88 1011.4
20260905235020 28 204 3.2 9.7 0.00 0.00 0.00 88 1011.3
20260905234512 28 205 3.2 9.7 0.00 0.00 0.00 88 1011.3
20260905234004 28 188 4.8 8.0 0.00 0.00 0.00 87 1011.3
20260905233506 28 203 3.2 9.7 0.00 0.00 0.00 87 1011.3
20260905233015 28 160 3.2 16.1 0.00 0.00 0.00 87 1011.3
20260905232512 28 188 6.4 16.1 0.00 0.00 0.00 86 1011.1
20260905232008 29 176 4.8 11.3 0.00 0.00 0.00 87 1011.1
20260905231523 29 214 6.4 14.5 0.00 0.00 0.00 86 1011.1
20260905231010 29 226 3.2 16.1 0.00 0.00 0.00 86 1011.2
20260905230511 29 187 9.7 19.3 0.00 0.00 0.00 85 1011.1
20260905230030 30 168 8.0 19.3 0.00 0.00 0.00 84 1011.2
20260905225515 30 169 8.0 22.5 0.00 0.00 0.00 84 1011.1
20260905225018 30 210 11.3 22.5 0.00 0.00 0.00 84 1011.0
20260905224540 30 167 12.9 20.9 0.00 0.00 0.00 83 1011.0
20260905224019 30 147 11.3 20.9 0.00 0.00 0.00 84 1011.1
20260905223515 30 195 11.3 22.5 0.00 0.00 0.00 84 1011.0
20260905223010 30 188 11.3 22.5 0.00 0.00 0.00 83 1011.2
20260905222509 30 167 11.3 20.9 0.00 0.00 0.00 82 1011.1
20260905222008 30 128 11.3 20.9 0.00 0.00 0.00 83 1011.1
20260905221519 30 221 11.3 17.7 0.00 0.00 0.00 82 1011.0
20260905221009 30 203 9.7 19.3 0.00 0.00 0.00 81 1010.9
20260905220510 31 188 11.3 19.3 0.00 0.00 0.00 81 1010.9
20260905220030 31 208 6.4 19.3 0.00 0.00 0.00 81 1010.9
20260905215513 31 187 11.3 17.7 0.00 0.00 0.00 81 1010.9
20260905215012 31 212 9.7 16.1 0.00 0.00 0.00 80 1011.0
20260905214530 31 205 9.7 17.7 0.00 0.00 0.00 80 1011.1
20260905214014 31 179 14.5 17.7 0.00 0.00 0.00 79 1011.2
20260905213516 31 191 9.7 19.3 0.00 0.00 0.00 79 1011.2
20260905213033 31 207 8.0 19.3 0.00 0.00 0.00 80 1011.1
20260905212515 31 165 9.7 17.7 0.00 0.00 0.00 79 1011.0
20260905212017 31 191 8.0 16.1 0.00 0.00 0.00 79 1010.8
20260905211532 31 178 9.7 16.1 0.00 0.00 0.00 80 1010.8
20260905211007 31 169 8.0 14.5 0.00 0.00 0.00 80 1010.6
20260905210511 31 172 8.0 14.5 0.00 0.00 0.00 79 1010.6
20260905210019 31 186 8.0 19.3 0.00 0.00 0.00 80 1010.7
20260905205511 31 177 9.7 19.3 0.00 0.00 0.00 79 1010.7
20260905205012 31 187 9.7 17.7 0.00 0.00 0.00 80 1010.7
20260905204527 31 210 8.0 17.7 0.00 0.00 0.00 80 1010.6
20260905204013 31 180 11.3 17.7 0.00 0.00 0.00 79 1010.6
20260905203514 31 183 11.3 17.7 0.00 0.00 0.00 80 1010.5
20260905203033 31 205 9.7 19.3 0.00 0.00 0.00 79 1010.5
20260905202516 31 196 11.3 19.3 0.00 0.00 0.00 79 1010.6
20260905202014 31 156 9.7 17.7 0.00 0.00 0.00 79 1010.5
20260905201536 31 173 8.0 16.1 0.00 0.00 0.00 79 1010.6
20260905201020 31 194 8.0 17.7 0.00 0.00 0.00 80 1010.5
20260905200517 31 214 12.9 19.3 0.00 0.00 0.00 80 1010.6
20260905200043 31 159 14.5 19.3 0.00 0.00 0.00 80 1010.6
20260905195508 31 211 8.0 17.7 0.00 0.00 0.00 79 1010.7
20260905195008 31 203 9.7 17.7 0.00 0.00 0.00 80 1010.7
20260905194524 31 178 9.7 14.5 0.00 0.00 0.00 78 1010.8
20260905194003 31 189 8.0 16.1 0.00 0.00 0.00 78 1010.8
20260905193505 31 180 8.0 16.1 0.00 0.00 0.00 78 1010.8
20260905193004 31 163 8.0 16.1 0.00 0.00 0.00 78 1010.8
20260905192503 31 188 8.0 19.3 0.00 0.00 0.00 78 1011.0
20260905192004 31 165 9.7 19.3 0.00 0.00 0.00 77 1011.1
20260905191508 31 186 6.4 16.1 0.00 0.00 0.00 77 1011.2
20260905191006 31 209 8.0 17.7 0.00 0.00 0.00 77 1011.2
20260905190503 31 158 6.4 17.7 0.00 0.00 0.00 76 1011.2
20260905190010 31 153 8.0 16.1 0.00 0.00 0.00 76 1011.3
20260905185505 31 209 8.0 16.1 0.00 0.00 0.00 75 1011.4
20260905185006 31 183 8.0 14.5 0.00 0.00 0.00 76 1011.5
20260905184518 31 226 8.0 14.5 0.00 0.00 0.00 76 1011.8
20260905184008 31 193 9.7 17.7 0.00 0.00 0.00 76 1011.9
20260905183509 31 205 9.7 17.7 0.00 0.00 0.00 76 1012.0
20260905183026 31 210 8.0 16.1 0.00 0.00 0.00 75 1012.0
20260905182513 31 173 6.4 17.7 0.00 0.00 0.00 76 1012.2
20260905182003 31 170 11.3 20.9 0.00 0.00 0.00 75 1012.1
20260905181503 31 219 6.4 20.9 0.00 0.00 0.00 76 1012.2
20260905181004 31 187 8.0 20.9 0.00 0.00 0.00 76 1012.3
20260905180504 31 167 11.3 17.7 0.00 0.00 0.00 76 1012.3
20260905180009 31 185 9.7 17.7 0.00 0.00 0.00 75 1012.4
20260905175503 31 191 9.7 20.9 0.00 0.00 0.00 76 1012.5
20260905175004 31 193 8.0 20.9 0.00 0.00 0.00 75 1012.6
20260905174516 31 160 8.0 17.7 0.00 0.00 0.00 76 1012.8
20260905174010 31 152 8.0 16.1 0.00 0.00 0.00 74 1013.0
20260905173508 31 206 6.4 16.1 0.00 0.00 0.00 73 1013.0
20260905173026 31 176 11.3 16.1 0.00 0.00 0.00 71 1012.9
20260905172510 31 125 8.0 14.5 0.00 0.00 0.00 71 1013.1
20260905172012 31 210 8.0 14.5 0.00 0.00 0.00 73 1013.2
20260905171536 31 230 3.2 14.5 0.00 0.00 0.00 75 1013.2
20260905171011 30 250 4.8 16.1 0.00 0.00 0.00 78 1013.2
20260905170514 30 62 8.0 16.1 0.00 0.00 0.00 83 1013.3
20260905170009 29 63 4.8 14.5 0.00 0.00 0.00 84 1013.3
20260905165503 29 91 8.0 11.3 0.00 0.00 0.00 85 1013.4
20260905165007 29 101 6.4 11.3 0.00 0.00 0.00 84 1013.5
20260905164509 29 108 8.0 11.3 0.00 0.00 0.00 84 1013.6
20260905164006 30 105 8.0 11.3 0.00 0.00 0.00 83 1013.7
20260905163507 29 87 6.4 12.9 0.00 0.00 0.00 83 1013.8
20260905163016 29 91 8.0 12.9 0.00 0.00 0.00 83 1013.7
20260905162512 30 129 4.8 8.0 0.00 0.00 0.00 83 1013.8
20260905162010 30 91 4.8 8.0 0.00 0.00 0.00 81 1013.9
20260905161522 30 77 4.8 8.0 0.00 0.00 0.00 80 1014.0
20260905161013 30 98 3.2 11.3 0.00 0.00 0.00 79 1014.0
20260905160513 30 131 4.8 11.3 0.00 0.00 0.00 80 1014.0
20260905160048 31 120 8.0 11.3 0.00 0.00 0.00 79 1014.1
20260905155514 31 104 6.4 12.9 0.00 0.00 0.00 76 1014.1
20260905155018 31 152 3.2 12.9 0.00 0.00 0.00 76 1014.1
20260905154508 31 148 4.8 14.5 0.00 0.00 0.00 75 1014.0
20260905154004 31 138 4.8 14.5 0.00 0.00 0.00 75 1014.0
20260905153505 31 137 8.0 12.9 0.00 0.00 0.00 74 1014.1
20260905153019 31 162 4.8 11.3 0.00 0.00 0.00 74 1014.2
20260905152511 31 96 1.6 8.0 0.00 0.00 0.00 73 1014.1
20260905152005 31 311 1.6 9.7 0.00 0.00 0.00 72 1014.1
20260905151518 31 213 3.2 9.7 0.00 0.00 0.00 74 1014.2
20260905151012 31 26 0.0 8.0 0.00 0.00 0.00 76 1014.1
20260905150510 31 170 4.8 8.0 0.00 0.00 0.00 75 1014.1
20260905150024 30 70 3.2 6.4 0.00 0.00 0.00 77 1014.1
20260905145509 30 145 1.6 6.4 0.00 0.00 0.00 76 1014.2
20260905145018 30 258 1.6 6.4 0.00 0.00 0.00 77 1014.2
20260905144527 31 251 1.6 6.4 0.00 0.00 0.00 77 1014.2
20260905144018 30 216 1.6 6.4 0.00 0.00 0.00 78 1014.2
20260905143516 30 284 1.6 6.4 0.00 0.00 0.00 78 1014.2
20260905143031 30 271 1.6 8.0 0.00 0.00 0.00 81 1014.1
20260905142504 30 351 4.8 8.0 0.00 0.00 0.00 80 1014.2
20260905142004 30 203 1.6 8.0 0.00 0.00 0.00 80 1014.1
20260905141512 30 285 3.2 9.7 0.00 0.00 0.00 80 1014.2
20260905141005 29 319 1.6 11.3 0.00 0.00 0.00 82 1014.2
20260905140509 29 294 4.8 11.3 0.00 0.00 0.00 81 1014.1
20260905140018 29 346 4.8 11.3 0.00 0.00 0.00 83 1014.1
20260905135510 28 301 1.6 8.0 0.00 0.00 0.00 85 1014.2
20260905135009 28 247 3.2 12.9 0.00 0.00 0.00 87 1014.2
20260905134529 28 1 6.4 12.9 0.00 0.00 0.00 86 1014.3
20260905134014 28 307 8.0 12.9 0.00 0.00 0.00 90 1014.2
20260905133513 27 7 3.2 8.0 0.00 0.00 0.00 89 1014.3
20260905133027 27 328 4.8 8.0 0.00 0.00 0.00 89 1014.2
20260905132514 28 294 3.2 12.9 0.00 0.00 0.00 89 1014.3
20260905132014 28 303 3.2 12.9 0.00 0.00 0.00 90 1014.3
20260905131532 28 6 9.7 12.9 0.00 0.03 0.00 90 1014.3
20260905131003 28 17 8.0 12.9 0.00 0.03 0.00 90 1014.3
20260905130509 28 358 6.4 11.3 0.00 0.03 0.00 91 1014.2
20260905130015 27 1 6.4 11.3 0.00 0.03 0.00 91 1014.2
20260905125507 27 321 4.8 9.7 0.00 0.03 0.00 91 1014.3
20260905125009 27 340 6.4 9.7 0.00 0.03 0.00 91 1014.3
20260905124536 27 336 4.8 9.7 0.00 0.03 0.00 90 1014.3
20260905124011 28 331 3.2 9.7 0.00 0.03 0.00 91 1014.3
20260905123512 27 337 6.4 9.7 0.00 0.03 0.00 91 1014.2
20260905123028 28 317 4.8 8.0 0.00 0.03 0.00 90 1014.1
20260905122514 28 319 1.6 6.4 0.00 0.03 0.00 91 1014.3
20260905122014 28 360 0.0 3.2 0.00 0.03 0.00 92 1014.2
20260905121529 27 4 0.0 3.2 0.00 0.03 0.00 93 1014.1
20260905121016 27 327 0.0 4.8 0.00 0.03 0.00 93 1014.2
20260905120516 27 316 1.6 4.8 0.00 0.03 0.00 93 1014.2
20260905120033 27 324 3.2 6.4 0.00 0.03 0.00 93 1014.3
20260905115518 27 354 3.2 8.0 0.00 0.03 0.00 94 1014.2
20260905115009 27 328 4.8 8.0 0.00 0.08 0.00 94 1014.2
20260905114518 27 333 4.8 8.0 0.00 0.15 0.00 94 1014.1
20260905114009 27 344 4.8 9.7 0.00 0.15 0.00 94 1014.1
20260905113510 26 311 3.2 9.7 0.00 0.15 0.00 95 1014.1
20260905113026 26 352 6.4 9.7 0.00 0.15 0.00 95 1014.0
20260905112512 26 329 3.2 8.0 0.00 0.15 0.00 95 1014.0
20260905112012 26 319 3.2 4.8 0.00 0.15 0.00 94 1014.0
20260905111532 26 316 0.0 0.0 0.00 0.15 0.00 94 1013.9
20260905111013 26 316 0.0 0.0 0.00 0.15 0.00 94 1013.9
20260905110516 26 317 0.0 1.6 0.00 0.15 0.00 94 1013.8
20260905110029 26 317 0.0 1.6 0.00 0.15 0.00 94 1013.8
20260905105502 26 277 0.0 0.0 0.00 0.15 0.00 94 1013.9